Voltar ao catálogo

STARLINK-2620

AtivoComunicaçõesVLEO
NORAD 48453·PAYLOAD·🇺🇸 United States

Lançado May 9, 2021 de Cape Canaveral Space Force Station

Loading…

Próximas Passagens (próximas 24 horas)

TLE

AtualizadoSource: CelesTrak SupGP

Época: Sep 14, 2026, 21:43 UTC

1 48453C 21040AB  26257.90534722 -.00003593  00000+0 -11551-3 0  2579
2 48453  53.1608  17.5357 0001169  79.4169  88.2430 15.31711104    10

Acompanhe STARLINK-2620 em tempo real com AllMySat

Download on the App Store